This demonstration page uses our WeatherBlox Daily Observations layout. Learn more.

Left ArrowRight Arrow

Hourly Observations for October 19, 2015

Temp ( °F °C ) Dew Point ( °F °C ) Humidity (%) Winds ( mph kmh ) Pressure ( in mb ) Visibility ( mi km ) Precip ( " mm )
12:53 am 00:53 Clear 56 13.3 50 10 81 81 N 5 7 29.96 1015 10 16 0.00 0.00
1:53 am 01:53 Clear 53 11.7 48 8.9 83 83 Calm 29.98 1015 10 16 0.00 0.00
2:53 am 02:53 Clear 52 11.1 48 8.9 86 86 Calm 29.98 1015 10 16 0.00 0.00
3:53 am 03:53 Clear 53 11.7 48 8.9 83 83 NW 3 6 29.98 1015 10 16 0.00 0.00
4:53 am 04:53 Clear 52 11.1 47 8.3 83 83 Calm 29.98 1015 10 16 0.00 0.00
5:53 am 05:53 Clear 50 10 46 7.8 86 86 Calm 30.00 1016 10 16 0.00 0.00
6:53 am 06:53 Clear 51 10.6 46 7.8 83 83 N 3 6 30.01 1016 10 16 0.00 0.00
7:53 am 07:53 Sunny 50 10 46 7.8 86 86 W 3 6 30.02 1017 10 16 0.00 0.00
8:53 am 08:53 Partly Cloudy 54 12.2 49 9.4 83 83 Calm 30.02 1017 10 16 0.00 0.00
9:53 am 09:53 Sunny 61 16.1 51 10.6 70 70 Calm 30.03 1017 10 16 0.00 0.00
10:53 am 10:53 Sunny 66 18.9 50 10 56 56 Calm 30.02 1017 10 16 0.00 0.00
11:53 am 11:53 Sunny 69 20.6 50 10 51 51 Calm 30.01 1016 10 16 0.00 0.00
12:53 pm 12:53 Sunny 72 22.2 49 9.4 44 44 VRB 3 6 29.99 1016 10 16 0.00 0.00
1:53 pm 13:53 Partly Cloudy 72 22.2 49 9.4 44 44 SE 3 6 29.98 1015 10 16 0.00 0.00
2:53 pm 14:53 Cloudy with Light Rain 72 22.2 50 10 46 46 Calm 29.97 1015 10 16 0.00 0.03
3:53 pm 15:53 Cloudy with Light Rain 68 20 55 12.8 63 63 WNW 5 7 29.98 1015 6 10 0.01 0.25
4:53 pm 16:53 Mostly Cloudy 65 18.3 59 15 81 81 N 5 7 29.97 1015 10 16 0.04 1.02
5:53 pm 17:53 Mostly Sunny 65 18.3 58 14.4 78 78 N 5 7 29.97 1015 10 16 0.00 0.00
6:53 pm 18:53 Mostly Clear 61 16.1 57 13.9 87 87 W 3 6 29.98 1015 10 16 0.00 0.00
7:53 pm 19:53 Mostly Clear 61 16.1 57 13.9 87 87 NW 5 7 29.99 1016 10 16 0.00 0.00
8:53 pm 20:53 Clear 61 16.1 56 13.3 84 84 NW 5 7 30.00 1016 10 16 0.00 0.00
9:53 pm 21:53 Clear 60 15.6 55 12.8 84 84 NNW 8 13 30.01 1016 10 16 0.00 0.00
10:53 pm 22:53 Clear 61 16.1 53 11.7 75 75 N 7 11 30.02 1017 10 16 0.00 0.00
11:53 pm 23:53 Clear 62 16.7 50 10 65 65 NNW 8 13 30.02 1017 10 16 0.00 0.00

Powered by AerisWeather